World > North America > United States > Minnesota

Hourly Gem Lake, MN Regional Weather

Feedback E-mail the Weather

Quick WX

Gem Lake, MN Weather Maps

°F °C°F °C
Gem Lake Weather Map
UTC Time: 6/30/2022, 20:13
Your Time:

Gem Lake, MN Regional Weather

Expires:202206302100;;456803
ASUS43 KMPX 302010
RWRMN 
WEATHER ROUNDUP FOR MINNESOTA
NATIONAL WEATHER SERVICE TWIN CITIES/CHANHASSEN MN
300 PM CDT THU JUN 30 2022


NOTE: "FAIR" INDICATES FEW OR NO CLOUDS BELOW 12,000 FEET WITH NO
SIGNIFICANT WEATHER AND/OR OBSTRUCTIONS TO VISIBILITY. N/A MEANS
CURRENT SKY AND/OR WEATHER CONDITIONS ARE NOT AVAILABLE.


MNZ060>063-068>070-302100-
   Twin Cities Metro   
  
CITY           SKY/WX    TMP DP  RH WIND       PRES   REMARKS
TWIN CITIES    PTSUNNY   88  61  40 NW7G20    29.79F                  
ST PAUL        MOSUNNY   89  65  44 W6        29.79S HX  91           
CRYSTAL        MOSUNNY   88  63  43 W10       29.79R                  
BLAINE         MOSUNNY   90  61  37 W9        29.79S                  
LAKEVILLE      PTSUNNY   81  64  57 S8        29.82R                  
EDEN PRAIRIE   MOSUNNY   88  61  40 NW9       29.79S                  
SOUTH ST PAUL  MOSUNNY   86  61  43 SW3       29.79S                  
LAKE ELMO      FAIR      86  63  45 SW7       29.81S                  
$$

SKY/WX - Weather  TMP - Temperature  DP - Dew Point  RH - Humidity
WIND - Wind Direction/Speed PRES - Barometric Pressure VSB - Visibility
WCI - Wind Chill Index E13G22 Wind - East Wind 13 mph/Gusts of 22 mph

Trending Headlines

Gem Lake Radar Loop



Gem Lake Quick Facts


National Two Day Weather Forecast


E-mail the Gem Lake Weather Forecast

Voice your opinion or tell us about page issues...